Station Historical Data
Daily Summary for March 1, 2017 Units:  English    Metric   Both
« Previous Day
Next Day »
Daily Weekly Monthly Yearly Custom
  High: Low: Average:
Temperature: 54.2 °F 34.7 °F 42.8 °F
Dew Point: 39.1 °F 26.8 °F 32.4 °F
Humidity: 83 % 42 % 67 %
Wind Speed: 11.0 mph 0.0 mph 2 mph
Wind Gust: 15.0 mph - -
Wind:- - SSE
Pressure: 30.47 in 30.41 in -
Precipitation: 0.00 in    
Historical Graphs
 
 
Tabular Data for March 1, 2017
Time Temperature Dew Point Pressure Wind Wind Speed Wind Gust Humidity Rainfall Rate (Hourly) solar
00:02 35.9 °F 30.6 °F 30.42 in ESE 1.0 mph 11.0 mph 81 % 0.00 in 0.00 W/m2
00:07 35.9 °F 30.6 °F 30.42 in Calm   11.0 mph 81 % 0.00 in 0.00 W/m2
00:12 35.9 °F 30.6 °F 30.42 in East 7.0 mph 9.0 mph 81 % 0.00 in 0.00 W/m2
00:17 36.0 °F 30.8 °F 30.42 in East 7.0 mph 8.0 mph 81 % 0.00 in 0.00 W/m2
00:22 36.0 °F 30.4 °F 30.42 in Calm   8.0 mph 80 % 0.00 in 0.00 W/m2
00:27 36.0 °F 30.4 °F 30.42 in Calm   2.0 mph 80 % 0.00 in 0.00 W/m2
00:32 36.1 °F 30.5 °F 30.42 in East 6.0 mph 8.0 mph 80 % 0.00 in 0.00 W/m2
00:37 36.1 °F 30.2 °F 30.42 in East 6.0 mph 11.0 mph 79 % 0.00 in 0.00 W/m2
00:42 36.1 °F 30.2 °F 30.42 in East 7.0 mph 8.0 mph 79 % 0.00 in 0.00 W/m2
00:47 36.1 °F 30.2 °F 30.42 in East 1.0 mph 5.0 mph 79 % 0.00 in 0.00 W/m2
00:52 36.2 °F 30.3 °F 30.42 in Calm   1.0 mph 79 % 0.00 in 0.00 W/m2
00:57 36.2 °F 30.3 °F 30.42 in ESE 7.0 mph 11.0 mph 79 % 0.00 in 0.00 W/m2
01:02 36.2 °F 30.3 °F 30.42 in East 4.0 mph 9.0 mph 79 % 0.00 in 0.00 W/m2
01:07 36.1 °F 29.9 °F 30.42 in East 7.0 mph 12.0 mph 78 % 0.00 in 0.00 W/m2
01:12 36.1 °F 29.9 °F 30.42 in East 5.0 mph 8.0 mph 78 % 0.00 in 0.00 W/m2
01:17 36.1 °F 29.9 °F 30.42 in East 2.0 mph 2.0 mph 78 % 0.00 in 0.00 W/m2
01:22 36.0 °F 29.5 °F 30.42 in Calm   9.0 mph 77 % 0.00 in 0.00 W/m2
01:27 36.0 °F 29.5 °F 30.42 in Calm   11.0 mph 77 % 0.00 in 0.00 W/m2
01:32 36.1 °F 29.6 °F 30.42 in East 5.0 mph 11.0 mph 77 % 0.00 in 0.00 W/m2
01:37 36.0 °F 29.5 °F 30.42 in Calm   13.0 mph 77 % 0.00 in 0.00 W/m2
01:42 36.0 °F 29.2 °F 30.42 in Calm   6.0 mph 76 % 0.00 in 0.00 W/m2
01:47 36.0 °F 28.9 °F 30.42 in East 4.0 mph 11.0 mph 75 % 0.00 in 0.00 W/m2
01:52 36.1 °F 29.3 °F 30.42 in East 5.0 mph 12.0 mph 76 % 0.00 in 0.00 W/m2
01:57 36.0 °F 29.2 °F 30.43 in East 4.0 mph 9.0 mph 76 % 0.00 in 0.00 W/m2
02:02 36.0 °F 29.5 °F 30.42 in Calm   7.0 mph 77 % 0.00 in 0.00 W/m2
02:07 36.0 °F 29.2 °F 30.42 in Calm   11.0 mph 76 % 0.00 in 0.00 W/m2
02:12 35.9 °F 29.1 °F 30.42 in East 5.0 mph 9.0 mph 76 % 0.00 in 0.00 W/m2
02:17 35.8 °F 28.7 °F 30.42 in East 9.0 mph 9.0 mph 75 % 0.00 in 0.00 W/m2
02:22 35.8 °F 28.3 °F 30.42 in ESE 9.0 mph 9.0 mph 74 % 0.00 in 0.00 W/m2
02:27 35.8 °F 28.3 °F 30.42 in Calm   12.0 mph 74 % 0.00 in 0.00 W/m2
02:32 35.9 °F 28.4 °F 30.42 in ESE 5.0 mph 8.0 mph 74 % 0.00 in 0.00 W/m2
02:37 35.9 °F 28.4 °F 30.42 in ESE 9.0 mph 11.0 mph 74 % 0.00 in 0.00 W/m2
02:42 35.9 °F 28.4 °F 30.42 in ESE 7.0 mph 11.0 mph 74 % 0.00 in 0.00 W/m2
02:47 35.8 °F 28.3 °F 30.42 in East 6.0 mph 12.0 mph 74 % 0.00 in 0.00 W/m2
02:52 35.8 °F 28.7 °F 30.42 in ESE 1.0 mph 13.0 mph 75 % 0.00 in 0.00 W/m2
02:57 35.7 °F 28.6 °F 30.42 in ESE 5.0 mph 12.0 mph 75 % 0.00 in 0.00 W/m2
03:02 35.6 °F 28.5 °F 30.42 in East 7.0 mph 9.0 mph 75 % 0.00 in 0.00 W/m2
03:07 35.5 °F 28.4 °F 30.42 in East 6.0 mph 11.0 mph 75 % 0.00 in 0.00 W/m2
03:12 35.4 °F 28.3 °F 30.42 in ESE 4.0 mph 13.0 mph 75 % 0.00 in 0.00 W/m2
03:17 35.4 °F 28.0 °F 30.42 in ESE 6.0 mph 12.0 mph 74 % 0.00 in 0.00 W/m2
03:23 35.3 °F 27.9 °F 30.42 in ESE 4.0 mph 12.0 mph 74 % 0.00 in 0.00 W/m2
03:28 35.3 °F 27.9 °F 30.42 in Calm   11.0 mph 74 % 0.00 in 0.00 W/m2
03:33 35.3 °F 27.9 °F 30.42 in ESE 5.0 mph 8.0 mph 74 % 0.00 in 0.00 W/m2
03:38 35.3 °F 27.9 °F 30.42 in East 7.0 mph 11.0 mph 74 % 0.00 in 0.00 W/m2
03:43 35.3 °F 27.9 °F 30.42 in East 4.0 mph 12.0 mph 74 % 0.00 in 0.00 W/m2
03:48 35.3 °F 27.9 °F 30.42 in ESE 9.0 mph 9.0 mph 74 % 0.00 in 0.00 W/m2
03:53 35.3 °F 28.2 °F 30.42 in East 1.0 mph 8.0 mph 75 % 0.00 in 0.00 W/m2
03:58 35.2 °F 28.1 °F 30.42 in East 6.0 mph 9.0 mph 75 % 0.00 in 0.00 W/m2
04:03 35.2 °F 27.8 °F 30.42 in ESE 4.0 mph 9.0 mph 74 % 0.00 in 0.00 W/m2
04:08 35.1 °F 28.0 °F 30.42 in ESE 1.0 mph 9.0 mph 75 % 0.00 in 0.00 W/m2
04:13 35.1 °F 28.0 °F 30.42 in East 6.0 mph 9.0 mph 75 % 0.00 in 0.00 W/m2
04:18 35.0 °F 27.9 °F 30.43 in ESE 4.0 mph 9.0 mph 75 % 0.00 in 0.00 W/m2
04:23 35.0 °F 27.9 °F 30.43 in ESE 2.0 mph 8.0 mph 75 % 0.00 in 0.00 W/m2
04:28 34.9 °F 27.8 °F 30.42 in ESE 6.0 mph 11.0 mph 75 % 0.00 in 0.00 W/m2
04:33 34.8 °F 28.0 °F 30.43 in East 5.0 mph 11.0 mph 76 % 0.00 in 0.00 W/m2
04:38 34.8 °F 28.0 °F 30.43 in Calm   12.0 mph 76 % 0.00 in 0.00 W/m2
04:43 34.8 °F 27.7 °F 30.43 in East 9.0 mph 12.0 mph 75 % 0.00 in 0.00 W/m2
04:48 34.8 °F 27.7 °F 30.43 in Calm   8.0 mph 75 % 0.00 in 0.00 W/m2
04:53 34.7 °F 27.6 °F 30.43 in ESE 5.0 mph 11.0 mph 75 % 0.00 in 0.00 W/m2
04:58 34.8 °F 27.4 °F 30.43 in Calm   12.0 mph 74 % 0.00 in 0.00 W/m2
05:03 34.8 °F 27.4 °F 30.43 in ESE 8.0 mph 14.0 mph 74 % 0.00 in 0.00 W/m2
05:08 34.8 °F 27.7 °F 30.43 in East 8.0 mph 14.0 mph 75 % 0.00 in 0.00 W/m2
05:13 34.9 °F 27.8 °F 30.44 in ESE 1.0 mph 11.0 mph 75 % 0.00 in 0.00 W/m2
05:18 35.0 °F 27.6 °F 30.44 in East 2.0 mph 11.0 mph 74 % 0.00 in 0.00 W/m2
05:23 35.0 °F 27.2 °F 30.44 in East 7.0 mph 12.0 mph 73 % 0.00 in 0.00 W/m2
05:28 35.0 °F 27.6 °F 30.44 in East 2.0 mph 12.0 mph 74 % 0.00 in 0.00 W/m2
05:33 35.0 °F 27.6 °F 30.44 in East 8.0 mph 13.0 mph 74 % 0.00 in 0.00 W/m2
05:38 35.0 °F 27.2 °F 30.44 in East 6.0 mph 13.0 mph 73 % 0.00 in 0.00 W/m2
05:43 35.0 °F 27.2 °F 30.44 in ESE 5.0 mph 8.0 mph 73 % 0.00 in 0.00 W/m2
05:48 35.0 °F 27.2 °F 30.44 in ESE 4.0 mph 11.0 mph 73 % 0.00 in 0.00 W/m2
05:53 35.0 °F 27.6 °F 30.44 in ESE 5.0 mph 9.0 mph 74 % 0.00 in 0.00 W/m2
05:58 35.0 °F 27.2 °F 30.44 in East 8.0 mph 12.0 mph 73 % 0.00 in 0.00 W/m2
06:03 35.0 °F 27.2 °F 30.45 in Calm   11.0 mph 73 % 0.00 in 0.00 W/m2
06:08 35.0 °F 27.6 °F 30.45 in East 7.0 mph 12.0 mph 74 % 0.00 in 0.00 W/m2
06:13 34.9 °F 27.5 °F 30.45 in East 6.0 mph 11.0 mph 74 % 0.00 in 0.00 W/m2
06:18 34.9 °F 27.1 °F 30.45 in East 4.0 mph 9.0 mph 73 % 0.00 in 0.00 W/m2
06:23 34.8 °F 27.0 °F 30.45 in East 6.0 mph 9.0 mph 73 % 0.00 in 0.00 W/m2
06:28 34.8 °F 27.0 °F 30.45 in East 6.0 mph 8.0 mph 73 % 0.00 in 0.00 W/m2
06:33 34.9 °F 27.1 °F 30.45 in East 11.0 mph 11.0 mph 73 % 0.00 in 5.00 W/m2
06:38 34.9 °F 26.8 °F 30.45 in East 6.0 mph 12.0 mph 72 % 0.00 in 7.00 W/m2
06:43 35.0 °F 26.9 °F 30.45 in Calm   11.0 mph 72 % 0.00 in 11.00 W/m2
06:48 35.0 °F 26.9 °F 30.45 in East 4.0 mph 12.0 mph 72 % 0.00 in 12.00 W/m2
06:53 35.1 °F 27.0 °F 30.45 in East 7.0 mph 12.0 mph 72 % 0.00 in 16.00 W/m2
06:58 35.1 °F 27.0 °F 30.45 in East 7.0 mph 11.0 mph 72 % 0.00 in 21.00 W/m2
07:03 35.2 °F 27.4 °F 30.45 in ESE 6.0 mph 15.0 mph 73 % 0.00 in 30.00 W/m2
07:08 35.2 °F 27.1 °F 30.45 in East 6.0 mph 13.0 mph 72 % 0.00 in 44.00 W/m2
07:13 35.3 °F 26.9 °F 30.46 in ESE 8.0 mph 15.0 mph 71 % 0.00 in 56.00 W/m2
07:18 35.4 °F 27.0 °F 30.46 in ESE 6.0 mph 13.0 mph 71 % 0.00 in 76.00 W/m2
07:23 35.5 °F 27.0 °F 30.46 in ESE 9.0 mph 14.0 mph 71 % 0.00 in 93.00 W/m2
07:28 35.6 °F 27.1 °F 30.46 in East 2.0 mph 11.0 mph 71 % 0.00 in 109.00 W/m2
07:33 35.7 °F 27.2 °F 30.46 in ESE 9.0 mph 14.0 mph 71 % 0.00 in 132.00 W/m2
07:38 35.8 °F 27.0 °F 30.46 in East 8.0 mph 14.0 mph 70 % 0.00 in 149.00 W/m2
07:43 36.0 °F 27.2 °F 30.46 in East 4.0 mph 11.0 mph 70 % 0.00 in 172.00 W/m2
07:48 36.1 °F 27.3 °F 30.46 in Calm   12.0 mph 70 % 0.00 in 192.00 W/m2
07:53 36.3 °F 27.5 °F 30.46 in ESE 1.0 mph 9.0 mph 70 % 0.00 in 218.00 W/m2
07:58 36.5 °F 27.3 °F 30.47 in East 8.0 mph 12.0 mph 69 % 0.00 in 239.00 W/m2
08:03 36.7 °F 27.9 °F 30.47 in East 2.0 mph 13.0 mph 70 % 0.00 in 265.00 W/m2
08:08 36.9 °F 27.7 °F 30.46 in Calm   7.0 mph 69 % 0.00 in 283.00 W/m2
08:13 37.1 °F 27.5 °F 30.47 in Calm   5.0 mph 68 % 0.00 in 306.00 W/m2
08:18 37.3 °F 28.1 °F 30.47 in Calm   11.0 mph 69 % 0.00 in 322.00 W/m2
08:20 37.4 °F 28.2 °F 30.47 in Calm   11.0 mph 69 % 0.00 in 329.00 W/m2
08:25 37.6 °F 28.4 °F 30.47 in ESE 1.0 mph 11.0 mph 69 % 0.00 in 346.00 W/m2
08:30 37.8 °F 28.6 °F 30.47 in Calm   2.0 mph 69 % 0.00 in 362.00 W/m2
08:35 38.1 °F 28.5 °F 30.47 in ESE 1.0 mph 6.0 mph 68 % 0.00 in 380.00 W/m2
08:40 38.4 °F 28.8 °F 30.47 in ESE 1.0 mph 4.0 mph 68 % 0.00 in 396.00 W/m2
08:45 38.8 °F 29.2 °F 30.47 in ESE 1.0 mph 6.0 mph 68 % 0.00 in 411.00 W/m2
08:50 39.1 °F 29.1 °F 30.47 in ESE 4.0 mph 5.0 mph 67 % 0.00 in 425.00 W/m2
08:55 39.5 °F 28.7 °F 30.47 in Calm   2.0 mph 65 % 0.00 in 443.00 W/m2
09:00 39.9 °F 30.2 °F 30.46 in ESE 7.0 mph 7.0 mph 68 % 0.00 in 461.00 W/m2
09:05 40.4 °F 29.6 °F 30.46 in Calm   6.0 mph 65 % 0.00 in 476.00 W/m2
09:10 40.8 °F 29.6 °F 30.46 in Calm   2.0 mph 64 % 0.00 in 490.00 W/m2
09:15 41.3 °F 29.7 °F 30.46 in ESE 1.0 mph 2.0 mph 63 % 0.00 in 504.00 W/m2
09:20 41.8 °F 30.1 °F 30.46 in ESE 2.0 mph 4.0 mph 63 % 0.00 in 517.00 W/m2
09:25 42.2 °F 28.9 °F 30.46 in Calm   2.0 mph 59 % 0.00 in 533.00 W/m2
09:30 42.5 °F 28.4 °F 30.46 in Calm   1.0 mph 57 % 0.00 in 547.00 W/m2
09:35 42.9 °F 28.7 °F 30.46 in Calm   1.0 mph 57 % 0.00 in 559.00 W/m2
09:40 43.2 °F 29.9 °F 30.46 in Calm     59 % 0.00 in 573.00 W/m2
09:45 43.5 °F 31.0 °F 30.47 in Calm     61 % 0.00 in 585.00 W/m2
09:50 44.0 °F 29.3 °F 30.46 in Calm     56 % 0.00 in 592.00 W/m2
09:55 44.5 °F 28.5 °F 30.47 in Calm     53 % 0.00 in 606.00 W/m2
10:00 45.1 °F 28.1 °F 30.47 in ESE 1.0 mph 2.0 mph 51 % 0.00 in 619.00 W/m2
10:05 45.9 °F 29.3 °F 30.47 in Calm   2.0 mph 52 % 0.00 in 631.00 W/m2
10:10 46.5 °F 30.3 °F 30.46 in Calm   1.0 mph 53 % 0.00 in 638.00 W/m2
10:15 47.2 °F 30.0 °F 30.46 in Calm   4.0 mph 51 % 0.00 in 649.00 W/m2
10:20 47.7 °F 31.4 °F 30.46 in North 1.0 mph 4.0 mph 53 % 0.00 in 659.00 W/m2
10:25 48.1 °F 31.3 °F 30.46 in North 2.0 mph 3.0 mph 52 % 0.00 in 668.00 W/m2
10:30 48.5 °F 31.7 °F 30.46 in North 1.0 mph 3.0 mph 52 % 0.00 in 677.00 W/m2
10:35 48.6 °F 31.3 °F 30.46 in NNW 1.0 mph 2.0 mph 51 % 0.00 in 686.00 W/m2
10:40 48.8 °F 32.0 °F 30.46 in NW 2.0 mph 2.0 mph 52 % 0.00 in 693.00 W/m2
10:45 48.9 °F 31.6 °F 30.46 in NW 2.0 mph 3.0 mph 51 % 0.00 in 703.00 W/m2
10:50 49.2 °F 30.9 °F 30.46 in Calm   3.0 mph 49 % 0.00 in 710.00 W/m2
10:55 49.4 °F 31.6 °F 30.46 in NW 1.0 mph 3.0 mph 50 % 0.00 in 715.00 W/m2
11:00 49.6 °F 30.7 °F 30.46 in Calm   3.0 mph 48 % 0.00 in 721.00 W/m2
11:05 49.8 °F 30.4 °F 30.46 in Calm   2.0 mph 47 % 0.00 in 728.00 W/m2
11:10 50.0 °F 30.0 °F 30.46 in Calm   3.0 mph 46 % 0.00 in 733.00 W/m2
11:15 50.2 °F 29.7 °F 30.46 in NW 1.0 mph 2.0 mph 45 % 0.00 in 738.00 W/m2
11:20 50.4 °F 29.9 °F 30.46 in Calm   1.0 mph 45 % 0.00 in 744.00 W/m2
11:25 50.6 °F 30.1 °F 30.46 in NW 2.0 mph 2.0 mph 45 % 0.00 in 749.00 W/m2
11:30 50.7 °F 29.6 °F 30.46 in Calm   1.0 mph 44 % 0.00 in 752.00 W/m2
11:35 50.8 °F 29.7 °F 30.46 in NW 1.0 mph 2.0 mph 44 % 0.00 in 756.00 W/m2
11:40 50.9 °F 28.6 °F 30.46 in NW 1.0 mph 2.0 mph 42 % 0.00 in 758.00 W/m2
11:45 51.0 °F 29.3 °F 30.46 in Calm   2.0 mph 43 % 0.00 in 761.00 W/m2
11:50 51.2 °F 29.5 °F 30.46 in NW 1.0 mph 2.0 mph 43 % 0.00 in 763.00 W/m2
11:55 51.3 °F 30.7 °F 30.46 in Calm   1.0 mph 45 % 0.00 in 765.00 W/m2
12:00 51.4 °F 30.2 °F 30.46 in NW 1.0 mph 1.0 mph 44 % 0.00 in 766.00 W/m2
12:05 51.5 °F 29.8 °F 30.45 in Calm   1.0 mph 43 % 0.00 in 766.00 W/m2
12:10 51.7 °F 29.4 °F 30.45 in NW 1.0 mph 1.0 mph 42 % 0.00 in 768.00 W/m2
12:15 52.0 °F 29.6 °F 30.45 in Calm   1.0 mph 42 % 0.00 in 770.00 W/m2
12:20 52.2 °F 29.8 °F 30.45 in Calm   1.0 mph 42 % 0.00 in 768.00 W/m2
12:25 52.3 °F 29.9 °F 30.44 in Calm   2.0 mph 42 % 0.00 in 772.00 W/m2
12:30 52.7 °F 32.0 °F 30.44 in WSW 6.0 mph 7.0 mph 45 % 0.00 in 765.00 W/m2
12:35 53.0 °F 31.1 °F 30.44 in West 1.0 mph 1.0 mph 43 % 0.00 in 761.00 W/m2
12:40 53.3 °F 32.5 °F 30.44 in Calm   5.0 mph 45 % 0.00 in 759.00 W/m2
12:45 53.5 °F 33.2 °F 30.44 in WNW 2.0 mph 7.0 mph 46 % 0.00 in 758.00 W/m2
12:50 53.7 °F 34.0 °F 30.44 in WSW 6.0 mph 9.0 mph 47 % 0.00 in 751.00 W/m2
12:55 53.8 °F 33.5 °F 30.44 in WSW 5.0 mph 7.0 mph 46 % 0.00 in 751.00 W/m2
13:00 53.9 °F 34.2 °F 30.43 in WSW 1.0 mph 11.0 mph 47 % 0.00 in 747.00 W/m2
13:05 54.1 °F 34.9 °F 30.43 in SSW 1.0 mph 8.0 mph 48 % 0.00 in 740.00 W/m2
13:10 54.2 °F 34.4 °F 30.43 in WNW 4.0 mph 9.0 mph 47 % 0.00 in 733.00 W/m2
13:15 54.1 °F 34.9 °F 30.43 in Calm   9.0 mph 48 % 0.00 in 729.00 W/m2
13:20 54.0 °F 35.3 °F 30.43 in Calm   8.0 mph 49 % 0.00 in 721.00 W/m2
13:25 54.0 °F 35.3 °F 30.43 in SW 4.0 mph 9.0 mph 49 % 0.00 in 715.00 W/m2
13:30 54.0 °F 36.3 °F 30.43 in West 4.0 mph 13.0 mph 51 % 0.00 in 707.00 W/m2
13:35 53.9 °F 37.2 °F 30.43 in SSW 6.0 mph 11.0 mph 53 % 0.00 in 703.00 W/m2
13:40 53.9 °F 37.7 °F 30.43 in WSW 7.0 mph 9.0 mph 54 % 0.00 in 693.00 W/m2
13:45 53.8 °F 36.6 °F 30.43 in WSW 6.0 mph 10.0 mph 52 % 0.00 in 686.00 W/m2
13:50 53.6 °F 36.4 °F 30.42 in Calm   8.0 mph 52 % 0.00 in 677.00 W/m2
13:55 53.4 °F 36.7 °F 30.42 in West 1.0 mph 10.0 mph 53 % 0.00 in 666.00 W/m2
14:00 53.4 °F 38.6 °F 30.42 in Calm   6.0 mph 57 % 0.00 in 656.00 W/m2
14:05 53.3 °F 38.0 °F 30.42 in SW 1.0 mph 11.0 mph 56 % 0.00 in 647.00 W/m2
14:10 53.3 °F 37.6 °F 30.42 in Calm   8.0 mph 55 % 0.00 in 640.00 W/m2
14:15 53.2 °F 37.0 °F 30.42 in Calm   6.0 mph 54 % 0.00 in 628.00 W/m2
14:20 53.0 °F 37.7 °F 30.42 in Calm   7.0 mph 56 % 0.00 in 615.00 W/m2
14:26 53.0 °F 37.7 °F 30.43 in WSW 8.0 mph 10.0 mph 56 % 0.00 in 605.00 W/m2
14:31 52.9 °F 37.2 °F 30.43 in SSW 1.0 mph 9.0 mph 55 % 0.00 in 594.00 W/m2
14:36 52.9 °F 37.7 °F 30.43 in West 1.0 mph 10.0 mph 56 % 0.00 in 578.00 W/m2
14:41 52.7 °F 37.5 °F 30.42 in Calm   2.0 mph 56 % 0.00 in 568.00 W/m2
14:46 52.6 °F 37.4 °F 30.43 in SW 1.0 mph 9.0 mph 56 % 0.00 in 555.00 W/m2
14:51 52.6 °F 39.1 °F 30.42 in Calm   7.0 mph 60 % 0.00 in 545.00 W/m2
14:56 52.5 °F 37.7 °F 30.42 in West 2.0 mph 6.0 mph 57 % 0.00 in 531.00 W/m2
15:01 52.4 °F 37.2 °F 30.43 in West 1.0 mph 2.0 mph 56 % 0.00 in 519.00 W/m2
15:06 52.3 °F 37.5 °F 30.42 in West 6.0 mph 7.0 mph 57 % 0.00 in 503.00 W/m2
15:11 52.2 °F 37.4 °F 30.43 in West 1.0 mph 4.0 mph 57 % 0.00 in 490.00 W/m2
15:16 52.1 °F 37.3 °F 30.43 in Calm   1.0 mph 57 % 0.00 in 476.00 W/m2
15:21 52.1 °F 37.3 °F 30.43 in Calm   6.0 mph 57 % 0.00 in 462.00 W/m2
15:26 52.1 °F 37.8 °F 30.43 in Calm   2.0 mph 58 % 0.00 in 452.00 W/m2
15:31 52.1 °F 37.8 °F 30.43 in WSW 1.0 mph 7.0 mph 58 % 0.00 in 432.00 W/m2
15:36 52.0 °F 37.2 °F 30.43 in Calm   1.0 mph 57 % 0.00 in 418.00 W/m2
15:41 52.0 °F 37.7 °F 30.43 in SW 1.0 mph 1.0 mph 58 % 0.00 in 401.00 W/m2
15:46 52.0 °F 37.7 °F 30.43 in SW 3.0 mph 8.0 mph 58 % 0.00 in 387.00 W/m2
15:51 51.9 °F 37.6 °F 30.43 in Calm   5.0 mph 58 % 0.00 in 369.00 W/m2
15:56 51.9 °F 38.0 °F 30.43 in Calm   2.0 mph 59 % 0.00 in 353.00 W/m2
16:01 51.9 °F 37.6 °F 30.43 in Calm   1.0 mph 58 % 0.00 in 338.00 W/m2
16:06 51.8 °F 37.9 °F 30.43 in Calm   2.0 mph 59 % 0.00 in 323.00 W/m2
16:10 51.7 °F 37.4 °F 30.42 in West 1.0 mph 1.0 mph 58 % 0.00 in 309.00 W/m2
16:15 51.7 °F 37.8 °F 30.42 in Calm   1.0 mph 59 % 0.00 in 292.00 W/m2
16:20 51.7 °F 37.4 °F 30.42 in Calm   1.0 mph 58 % 0.00 in 274.00 W/m2
16:25 51.5 °F 37.2 °F 30.42 in Calm   1.0 mph 58 % 0.00 in 257.00 W/m2
16:30 51.4 °F 37.1 °F 30.42 in Calm   1.0 mph 58 % 0.00 in 244.00 W/m2
16:35 51.4 °F 38.0 °F 30.42 in Calm     60 % 0.00 in 225.00 W/m2
16:40 51.3 °F 38.3 °F 30.42 in Calm     61 % 0.00 in 204.00 W/m2
16:45 51.3 °F 37.9 °F 30.42 in Calm   1.0 mph 60 % 0.00 in 185.00 W/m2
16:50 51.2 °F 39.0 °F 30.42 in Calm     63 % 0.00 in 162.00 W/m2
16:55 51.0 °F 38.9 °F 30.42 in Calm     63 % 0.00 in 141.00 W/m2
17:00 50.8 °F 37.8 °F 30.42 in Calm     61 % 0.00 in 120.00 W/m2
17:05 50.6 °F 37.7 °F 30.42 in Calm     61 % 0.00 in 100.00 W/m2
17:10 50.3 °F 38.6 °F 30.42 in Calm     64 % 0.00 in 81.00 W/m2
17:15 50.1 °F 38.4 °F 30.42 in Calm     64 % 0.00 in 65.00 W/m2
17:20 49.8 °F 38.1 °F 30.42 in Calm     64 % 0.00 in 49.00 W/m2
17:25 49.6 °F 37.9 °F 30.42 in Calm     64 % 0.00 in 37.00 W/m2
17:30 49.4 °F 38.5 °F 30.42 in Calm     66 % 0.00 in 28.00 W/m2
17:35 49.0 °F 38.5 °F 30.42 in Calm     67 % 0.00 in 19.00 W/m2
17:40 48.8 °F 38.3 °F 30.42 in Calm     67 % 0.00 in 16.00 W/m2
17:43 48.7 °F 38.2 °F 30.42 in Calm     67 % 0.00 in 14.00 W/m2
17:48 48.3 °F 38.2 °F 30.42 in Calm     68 % 0.00 in 11.00 W/m2
17:53 48.1 °F 38.0 °F 30.42 in Calm     68 % 0.00 in 9.00 W/m2
17:58 47.9 °F 37.9 °F 30.42 in Calm     68 % 0.00 in 7.00 W/m2
18:03 47.5 °F 38.6 °F 30.42 in Calm     71 % 0.00 in 0.00 W/m2
18:08 47.1 °F 37.8 °F 30.41 in Calm     70 % 0.00 in 0.00 W/m2
18:13 46.6 °F 38.1 °F 30.41 in Calm     72 % 0.00 in 0.00 W/m2
18:18 46.1 °F 37.6 °F 30.41 in Calm     72 % 0.00 in 0.00 W/m2
18:23 45.7 °F 37.2 °F 30.41 in Calm     72 % 0.00 in 0.00 W/m2
18:28 45.5 °F 38.4 °F 30.42 in Calm     76 % 0.00 in 0.00 W/m2
18:33 45.3 °F 36.8 °F 30.42 in Calm     72 % 0.00 in 0.00 W/m2
18:38 45.0 °F 37.2 °F 30.42 in Calm     74 % 0.00 in 0.00 W/m2
18:43 44.6 °F 36.8 °F 30.42 in Calm     74 % 0.00 in 0.00 W/m2
18:49 44.4 °F 36.7 °F 30.42 in Calm     74 % 0.00 in 0.00 W/m2
18:54 44.3 °F 36.5 °F 30.42 in Calm     74 % 0.00 in 0.00 W/m2
18:59 44.0 °F 35.9 °F 30.42 in Calm     73 % 0.00 in 0.00 W/m2
19:04 43.7 °F 36.0 °F 30.42 in Calm     74 % 0.00 in 0.00 W/m2
19:09 43.5 °F 35.8 °F 30.42 in Calm     74 % 0.00 in 0.00 W/m2
19:14 43.3 °F 35.6 °F 30.42 in Calm     74 % 0.00 in 0.00 W/m2
19:19 43.1 °F 35.7 °F 30.42 in Calm     75 % 0.00 in 0.00 W/m2
19:24 43.0 °F 35.6 °F 30.42 in Calm     75 % 0.00 in 0.00 W/m2
19:29 42.8 °F 35.1 °F 30.42 in Calm     74 % 0.00 in 0.00 W/m2
19:34 42.7 °F 35.3 °F 30.42 in Calm     75 % 0.00 in 0.00 W/m2
19:39 42.7 °F 35.3 °F 30.42 in Calm     75 % 0.00 in 0.00 W/m2
19:44 42.5 °F 35.2 °F 30.42 in Calm     75 % 0.00 in 0.00 W/m2
19:49 42.3 °F 35.3 °F 30.43 in Calm     76 % 0.00 in 0.00 W/m2
19:54 42.2 °F 35.2 °F 30.42 in Calm     76 % 0.00 in 0.00 W/m2
19:59 42.2 °F 34.9 °F 30.43 in Calm     75 % 0.00 in 0.00 W/m2
20:04 42.0 °F 35.0 °F 30.43 in Calm     76 % 0.00 in 0.00 W/m2
20:09 41.9 °F 34.9 °F 30.43 in Calm     76 % 0.00 in 0.00 W/m2
20:14 41.8 °F 34.5 °F 30.43 in Calm     75 % 0.00 in 0.00 W/m2
20:19 41.6 °F 34.6 °F 30.43 in Calm     76 % 0.00 in 0.00 W/m2
20:24 41.5 °F 35.2 °F 30.43 in Calm     78 % 0.00 in 0.00 W/m2
20:29 41.4 °F 34.7 °F 30.43 in Calm     77 % 0.00 in 0.00 W/m2
20:34 41.3 °F 34.3 °F 30.43 in Calm     76 % 0.00 in 0.00 W/m2
20:39 41.3 °F 34.3 °F 30.43 in Calm     76 % 0.00 in 0.00 W/m2
20:44 41.3 °F 34.7 °F 30.43 in Calm     77 % 0.00 in 0.00 W/m2
20:49 41.1 °F 34.1 °F 30.43 in Calm     76 % 0.00 in 0.00 W/m2
20:54 41.1 °F 34.5 °F 30.43 in Calm     77 % 0.00 in 0.00 W/m2
20:59 41.0 °F 34.3 °F 30.43 in Calm     77 % 0.00 in 0.00 W/m2
21:04 40.9 °F 34.3 °F 30.43 in Calm     77 % 0.00 in 0.00 W/m2
21:09 40.8 °F 34.5 °F 30.43 in Calm     78 % 0.00 in 0.00 W/m2
21:14 40.8 °F 34.5 °F 30.43 in Calm     78 % 0.00 in 0.00 W/m2
21:19 40.7 °F 34.1 °F 30.43 in Calm     77 % 0.00 in 0.00 W/m2
21:24 40.6 °F 34.0 °F 30.44 in Calm     77 % 0.00 in 0.00 W/m2
21:29 40.6 °F 34.3 °F 30.44 in Calm     78 % 0.00 in 0.00 W/m2
21:34 40.6 °F 34.3 °F 30.44 in Calm     78 % 0.00 in 0.00 W/m2
21:39 40.5 °F 34.5 °F 30.44 in Calm     79 % 0.00 in 0.00 W/m2
21:44 40.5 °F 34.5 °F 30.44 in Calm     79 % 0.00 in 0.00 W/m2
21:49 40.5 °F 34.8 °F 30.44 in Calm     80 % 0.00 in 0.00 W/m2
21:54 40.5 °F 35.1 °F 30.44 in Calm     81 % 0.00 in 0.00 W/m2
21:59 40.6 °F 35.5 °F 30.44 in Calm     82 % 0.00 in 0.00 W/m2
22:04 40.6 °F 35.5 °F 30.44 in Calm     82 % 0.00 in 0.00 W/m2
22:09 40.7 °F 36.0 °F 30.44 in East 1.0 mph 8.0 mph 83 % 0.00 in 0.00 W/m2
22:14 40.8 °F 35.7 °F 30.44 in Calm   2.0 mph 82 % 0.00 in 0.00 W/m2
22:19 40.9 °F 36.1 °F 30.44 in East 2.0 mph 2.0 mph 83 % 0.00 in 0.00 W/m2
22:24 40.9 °F 35.8 °F 30.44 in Calm   2.0 mph 82 % 0.00 in 0.00 W/m2
22:29 41.0 °F 35.9 °F 30.44 in East 1.0 mph 4.0 mph 82 % 0.00 in 0.00 W/m2
22:34 41.1 °F 36.0 °F 30.44 in Calm   4.0 mph 82 % 0.00 in 0.00 W/m2
22:39 41.2 °F 36.1 °F 30.44 in East 4.0 mph 4.0 mph 82 % 0.00 in 0.00 W/m2
22:44 41.2 °F 35.8 °F 30.44 in East 1.0 mph 2.0 mph 81 % 0.00 in 0.00 W/m2
22:49 41.3 °F 35.9 °F 30.44 in Calm   5.0 mph 81 % 0.00 in 0.00 W/m2
22:54 41.3 °F 35.9 °F 30.44 in Calm   2.0 mph 81 % 0.00 in 0.00 W/m2
22:59 41.3 °F 35.6 °F 30.44 in East 2.0 mph 4.0 mph 80 % 0.00 in 0.00 W/m2
23:04 41.3 °F 35.3 °F 30.44 in East 2.0 mph 4.0 mph 79 % 0.00 in 0.00 W/m2
23:09 41.3 °F 35.3 °F 30.44 in ESE 2.0 mph 6.0 mph 79 % 0.00 in 0.00 W/m2
23:14 41.3 °F 35.0 °F 30.44 in Calm   5.0 mph 78 % 0.00 in 0.00 W/m2
23:19 41.4 °F 35.1 °F 30.43 in ESE 1.0 mph 4.0 mph 78 % 0.00 in 0.00 W/m2
23:24 41.4 °F 35.1 °F 30.43 in ESE 1.0 mph 5.0 mph 78 % 0.00 in 0.00 W/m2
23:29 41.5 °F 35.2 °F 30.43 in ESE 2.0 mph 6.0 mph 78 % 0.00 in 0.00 W/m2
23:34 41.5 °F 35.2 °F 30.43 in East 1.0 mph 6.0 mph 78 % 0.00 in 0.00 W/m2
23:39 41.5 °F 35.2 °F 30.43 in ESE 5.0 mph 8.0 mph 78 % 0.00 in 0.00 W/m2
23:44 41.5 °F 35.2 °F 30.43 in Calm   7.0 mph 78 % 0.00 in 0.00 W/m2
23:49 41.5 °F 35.2 °F 30.43 in East 6.0 mph 7.0 mph 78 % 0.00 in 0.00 W/m2
23:54 41.5 °F 34.8 °F 30.43 in East 2.0 mph 7.0 mph 77 % 0.00 in 0.00 W/m2
23:59 41.4 °F 34.7 °F 30.43 in ESE 2.0 mph 6.0 mph 77 % 0.00 in 0.00 W/m2
Juneau County Weather
Compliments of Weather Underground - 4.5 mb
 WU-history PHP script courtesy of   Juneau County Weather.
powered by Cumulus v1.9.3 (1059)
Ambient Weather VWS v14.00
Top Contact Website Map Copyright © 2007 - 2018 Foresthillweather.com Never base important decisions on this or any weather information obtained from the Internet